Torna al catalogo

COSMOS 1814

AttivoMilitareLEO
NORAD 17303·PAYLOAD·🇷🇺 Russia

Lanciato Jan 21, 1987 da Plesetsk Cosmodrome

Loading…

Prossimi Passaggi (prossime 24 ore)

TLE

AggiornatoSource: Space-Track

Epoca: Sep 14, 2026, 22:51 UTC

1 17303U 87006A   26257.95234795  .00000064  00000-0  30741-4 0  9990
2 17303  74.0535  93.0264 0024494 171.7591 188.3969 14.36025085 75121

Traccia COSMOS 1814 in tempo reale con AllMySat

Download on the App Store